Date,TemperatureHighF,TemperatureAvgF,TemperatureLowF,DewpointHighF,DewpointAvgF,DewpointLowF,HumidityHigh,HumidityAvg,HumidityLow,PressureMaxIn,PressureMinIn,WindSpeedMaxMPH,WindSpeedAvgMPH,GustSpeedMaxMPH,PrecipitationSumIn
2014-1-6,11.1,5.5,1.1,-5.7,-9.4,-12.4,64,50,41,30.74,30.45,19,10,28,0.00
2014-1-7,45.9,23.6,3.5,24.8,11.6,-5.9,78,62,38,30.45,30.18,15,7,28,0.00
2014-1-8,22.4,17.8,14.8,15.3,13.8,11.8,89,85,71,30.48,30.33,10,6,28,0.00
2014-1-9,30.4,29.5,28.5,28.1,26.7,25.2,91,89,87,30.10,30.01,12,10,28,0.00
2014-1-10,34.2,31.6,28.5,32.6,29.6,24.9,96,92,84,30.00,29.64,13,7,28,0.02
2014-1-11,49.6,36.6,24.9,32.7,27.8,21.3,89,72,44,29.98,29.76,16,10,28,0.00
2014-1-12,53.2,41.4,33.0,35.6,30.4,25.8,76,65,46,29.80,29.55,13,8,28,0.00
2014-1-13,49.7,38.4,26.4,31.5,26.2,21.7,86,63,33,29.97,29.80,21,10,28,0.00
2014-1-14,46.1,35.5,22.7,33.3,17.6,4.3,68,50,24,30.36,29.81,31,19,37,0.00
2014-1-15,46.1,32.7,15.7,32.7,21.4,9.4,81,64,46,30.36,29.91,17,8,28,0.00
2014-1-16,45.6,36.1,21.3,30.1,18.5,7.6,63,49,35,30.22,29.90,38,22,48,0.00
2014-1-17,39.3,26.7,13.0,20.0,13.7,4.8,82,59,40,30.33,29.94,19,9,28,0.00
2014-1-18,42.5,36.2,21.2,27.9,23.5,15.8,83,61,50,30.22,29.87,39,18,47,0.00
2014-1-19,65.4,41.7,22.4,27.2,20.2,14.4,84,48,18,30.14,29.85,19,11,28,0.00
2014-1-20,46.2,30.3,6.6,26.1,14.8,-2.6,67,54,37,30.60,29.93,37,14,40,0.00
2014-1-21,27.1,11.8,0.2,11.3,-0.8,-6.2,77,58,38,30.64,30.21,21,7,30,0.00
2014-1-22,33.0,20.7,1.5,22.2,10.5,-8.9,82,65,47,30.77,30.27,23,11,29,0.00
2014-1-23,18.4,5.6,-5.4,-4.6,-8.4,-12.0,73,54,30,31.03,30.67,14,8,28,0.00
2014-1-24,53.0,33.9,10.9,35.6,19.1,-4.6,73,56,39,30.66,29.92,23,16,29,0.00
2014-1-25,49.1,40.9,34.8,35.7,31.4,26.2,83,69,55,30.15,29.71,23,10,31,0.00
2014-1-26,55.4,36.8,9.1,32.0,19.9,-8.4,73,51,34,30.40,29.70,32,17,41,0.00
2014-1-27,14.5,6.9,0.2,-5.8,-9.2,-11.9,66,48,33,30.64,30.41,20,7,28,0.00
2014-1-28,22.5,11.1,0.6,4.5,-3.1,-11.7,74,53,39,30.65,30.38,16,6,28,0.00
2014-1-29,45.1,24.8,2.4,20.6,7.6,-5.3,76,51,27,30.39,29.67,22,12,29,0.00
2014-1-30,40.5,31.2,19.9,27.7,15.0,11.5,83,52,34,30.14,29.51,27,12,32,0.00
2014-1-31,21.1,18.1,13.7,17.9,14.8,10.5,90,87,82,30.27,30.09,10,4,28,0.00
2014-2-1,22.4,18.4,7.9,18.4,13.3,1.3,90,80,71,30.46,30.04,12,5,28,0.00
2014-2-2,26.1,11.4,-4.1,15.9,5.0,-8.2,84,75,62,30.54,30.39,13,7,28,0.00
2014-2-3,27.5,18.7,6.0,17.4,11.5,2.2,86,74,59,30.40,30.28,14,7,28,0.00
2014-2-4,23.3,15.0,3.5,18.2,11.2,-0.3,89,85,75,30.59,30.31,20,11,29,0.00
2014-2-5,8.2,2.6,-5.3,-0.2,-4.5,-11.8,84,72,59,30.89,30.59,15,9,28,0.00
2014-2-6,7.3,-1.8,-11.8,-3.0,-9.1,-17.2,76,70,59,30.87,30.61,9,6,28,0.00
2014-2-7,11.4,7.5,-0.9,7.2,2.2,-7.1,85,78,74,30.61,30.28,13,8,28,0.00
2014-2-8,25.5,18.5,10.8,16.2,13.2,7.2,90,80,64,30.39,30.13,15,8,28,0.00
2014-2-9,17.5,11.5,8.9,14.6,7.1,3.2,89,82,74,30.61,30.37,12,6,28,0.00
2014-2-10,11.8,8.8,5.8,5.4,3.1,1.0,82,77,71,30.67,30.58,8,3,28,0.00
2014-2-11,21.0,14.8,6.6,15.5,9.9,2.0,84,80,76,30.60,30.19,17,12,28,0.00
2014-2-12,31.7,24.8,18.7,28.5,20.9,15.1,90,85,78,30.29,29.93,22,10,28,0.00
2014-2-13,52.3,38.9,26.2,36.6,29.9,22.4,88,71,49,29.93,29.65,17,10,28,0.00
2014-2-14,40.8,27.4,22.8,32.1,22.4,18.8,89,81,71,30.17,29.67,12,6,28,0.00
2014-2-15,56.2,37.8,24.7,37.5,26.7,21.0,86,68,32,30.19,29.92,24,12,34,0.00
2014-2-16,39.8,31.4,24.6,31.8,27.4,22.3,92,85,72,30.20,29.87,24,11,28,0.00
2014-2-17,56.1,41.7,30.8,33.9,26.0,19.3,92,59,24,30.10,29.86,22,11,28,0.00
2014-2-18,65.1,46.0,32.8,30.5,24.7,20.5,66,46,20,30.06,29.74,25,11,30,0.00
2014-2-19,54.4,37.9,24.0,27.9,22.6,17.2,80,57,27,30.06,29.62,19,9,28,0.00
2014-2-20,43.4,34.3,23.3,32.9,24.6,15.3,95,69,37,29.93,29.59,31,15,42,0.21
2014-2-21,51.0,35.2,19.9,26.2,19.3,14.3,85,56,25,29.97,29.87,20,9,28,0.00
2014-2-22,39.8,33.5,28.2,26.2,22.0,15.1,81,63,52,30.30,29.95,12,6,28,0.00
2014-2-23,28.6,25.5,21.6,15.6,11.8,8.2,63,56,46,30.48,30.28,11,5,28,0.00
2014-2-24,30.7,23.6,16.9,20.9,18.4,12.1,91,81,55,30.49,30.26,24,7,28,0.00
2014-2-25,16.1,11.8,6.8,11.0,4.5,-0.2,82,73,59,30.69,30.47,23,9,30,0.00
2014-2-26,31.6,17.1,0.1,16.8,8.0,-4.6,81,68,50,30.67,30.13,26,12,31,0.00
2014-2-27,26.0,17.2,6.1,13.2,5.1,0.5,79,60,40,30.27,29.94,16,10,28,0.00
2014-2-28,40.0,24.5,15.8,24.5,13.6,2.2,85,64,43,30.30,29.85,17,10,28,0.00
2014-3-1,16.8,7.2,-0.8,8.6,0.5,-8.0,80,74,64,30.69,30.28,17,13,28,0.00
2014-3-2,4.5,-1.0,-6.0,-7.3,-11.0,-15.1,74,62,51,30.83,30.68,13,8,28,0.00
2014-3-3,24.3,8.9,-6.3,4.4,-5.3,-12.7,76,55,32,30.81,30.29,21,9,28,0.00
2014-3-4,46.6,29.0,10.8,26.9,16.4,3.6,75,60,44,30.29,30.01,18,7,28,0.00
2014-3-5,34.1,24.9,18.7,20.3,16.0,12.7,80,69,54,30.40,30.19,11,6,28,0.00
2014-3-6,42.3,29.4,16.8,33.0,24.7,13.4,93,83,64,30.38,29.88,23,12,29,0.00
2014-3-7,39.8,32.5,25.5,36.1,27.2,19.0,95,81,64,30.32,29.85,20,10,28,0.00
2014-3-8,44.1,29.2,18.2,18.6,15.8,12.5,85,60,30,30.49,30.32,11,5,28,0.00
2014-3-9,72.2,48.3,26.5,33.7,27.0,14.3,86,50,20,30.37,29.89,29,14,39,0.00
2014-3-10,74.5,57.3,41.5,36.9,31.5,26.6,59,40,22,29.89,29.60,12,7,28,0.00
2014-3-11,51.0,41.3,33.8,36.0,30.6,24.6,91,68,41,30.23,29.43,32,13,47,0.05
2014-3-12,56.1,39.4,23.7,33.5,23.3,13.8,91,59,24,30.32,30.16,20,10,30,0.00
2014-3-13,67.6,47.0,25.8,30.0,20.2,11.8,75,40,13,30.17,29.72,21,10,28,0.00
2014-3-14,60.2,47.3,35.2,29.3,21.9,15.7,69,39,19,30.03,29.70,18,10,28,0.00
2014-3-15,62.7,44.6,29.9,30.2,23.9,18.6,80,47,26,30.31,29.83,23,15,31,0.00
2014-3-16,42.4,31.0,21.5,24.9,16.7,12.2,85,58,33,30.48,30.14,17,8,22,0.00
2014-3-17,65.1,43.7,26.3,30.6,22.9,13.1,63,46,25,30.14,29.43,22,15,26,0.00
2014-3-18,50.6,39.8,29.8,33.1,29.1,25.4,94,67,46,29.97,29.40,22,11,26,0.00
2014-3-19,52.0,37.4,27.6,34.9,28.1,24.1,93,72,37,30.24,29.97,21,12,26,0.00
2014-3-20,65.2,46.4,28.9,29.8,23.7,17.7,81,48,16,30.12,29.85,12,6,16,0.00
2014-3-21,55.7,43.3,31.0,30.6,25.9,17.2,74,52,33,30.34,29.80,25,12,33,0.00
2014-3-22,31.0,24.8,19.9,23.2,15.4,6.6,85,68,40,30.68,30.34,15,9,21,0.00
2014-3-23,37.7,24.6,10.6,17.1,13.1,7.7,90,65,41,30.69,30.36,13,6,20,0.00
2014-3-24,43.7,33.1,24.4,25.4,19.0,13.1,86,57,38,30.38,30.29,20,9,23,0.00
2014-3-25,40.9,30.1,17.8,19.0,13.2,9.3,77,51,30,30.54,30.21,15,8,19,0.00
2014-3-26,61.4,41.6,27.1,40.4,29.0,11.2,94,63,40,30.20,29.55,34,23,46,0.00
2014-3-27,46.0,38.6,30.3,45.2,36.0,26.3,97,90,79,29.97,29.34,28,15,35,0.17
2014-3-28,49.9,33.8,22.7,32.0,26.0,19.1,88,75,45,30.36,29.98,16,5,20,0.00
2014-3-29,60.5,38.7,17.8,32.2,26.4,15.6,94,66,32,30.42,30.08,22,9,25,0.00
2014-3-30,75.5,58.6,43.6,40.1,34.0,29.2,59,42,22,30.09,29.56,24,17,29,0.00
2014-3-31,65.3,48.1,28.8,41.9,30.1,14.4,69,51,34,30.07,29.35,34,24,39,0.00
2014-4-1,42.4,32.2,19.2,22.9,20.0,14.3,83,62,45,30.23,30.04,21,7,24,0.00
2014-4-2,41.8,36.1,31.1,36.8,28.3,20.4,95,74,60,30.15,29.87,15,11,22,0.00
2014-4-3,38.1,35.8,32.3,36.8,34.6,31.0,96,95,94,30.03,29.80,18,11,22,0.94
2014-4-4,45.4,35.5,30.6,34.1,29.8,25.6,96,80,62,30.26,30.02,25,12,33,0.02
2014-4-5,64.1,45.5,28.3,35.3,30.4,25.5,90,61,29,30.21,29.97,25,13,33,0.00
2014-4-6,62.8,52.4,45.7,42.2,37.9,32.8,87,58,41,29.99,29.81,22,10,28,0.00
2014-4-7,59.7,47.7,39.3,43.7,38.5,31.8,95,73,37,30.07,29.84,29,11,29,0.00
2014-4-8,57.9,45.8,30.6,36.1,26.6,18.1,90,54,21,30.19,30.06,17,8,24,0.00
2014-4-9,82.0,57.8,34.6,36.8,28.0,18.5,56,35,15,30.12,29.64,22,9,27,0.00
2014-4-10,65.2,57.2,47.9,39.1,30.0,21.0,68,38,22,30.04,29.63,22,8,25,0.00
2014-4-11,74.7,58.9,41.3,36.2,29.7,22.5,56,35,21,30.10,29.79,15,9,22,0.00
2014-4-12,76.5,65.0,54.5,57.0,50.7,36.1,90,62,43,29.79,29.52,16,9,20,0.00
2014-4-13,60.3,41.3,30.2,47.6,36.8,27.3,95,85,56,30.08,29.59,29,15,38,0.97
2014-4-14,44.2,32.6,26.1,32.9,24.5,17.8,84,72,54,30.39,30.07,20,11,38,0.00
2014-4-15,61.2,40.5,24.7,33.1,27.1,22.1,91,64,26,30.32,29.83,21,11,38,0.00
2014-4-16,60.9,46.1,34.5,40.2,29.1,23.8,76,53,34,30.21,29.67,26,18,38,0.00
2014-4-17,55.0,40.4,30.5,30.9,26.8,24.8,80,61,33,30.43,30.21,13,6,38,0.00
2014-4-18,68.5,51.6,32.0,45.5,37.8,27.5,84,61,41,30.33,30.05,26,15,38,0.00
2014-4-19,77.3,63.4,50.4,53.7,48.0,40.7,73,58,43,30.06,29.91,23,16,34,0.00
2014-4-20,78.2,65.8,54.5,56.7,52.6,48.8,82,64,44,29.98,29.88,20,11,34,0.00
2014-4-21,71.9,61.6,51.3,54.5,41.0,27.0,93,53,19,30.18,29.94,18,8,34,1.42
2014-4-22,70.6,57.2,37.1,36.8,33.6,29.6,78,43,26,30.19,29.91,23,12,25,0.00
2014-4-23,78.1,60.0,49.6,55.6,45.6,34.5,93,60,42,29.91,29.48,42,22,50,0.92
2014-4-24,67.7,57.3,49.4,53.0,42.5,29.2,96,63,24,29.86,29.57,21,10,27,0.62
2014-4-25,75.3,60.0,40.9,49.0,40.7,32.6,81,51,27,29.89,29.75,21,8,24,0.00
2014-4-26,80.0,64.6,48.1,60.3,50.7,42.4,83,62,43,29.76,29.37,35,18,37,0.00
2014-4-27,74.6,66.5,57.3,59.4,46.0,32.4,79,51,22,29.37,29.11,34,19,36,0.00
2014-4-28,56.7,47.0,40.2,45.2,41.6,37.2,90,82,62,29.50,29.17,27,16,35,0.05
2014-4-29,42.0,39.8,36.9,39.6,37.2,34.5,94,90,84,30.04,29.50,31,21,38,1.06
2014-4-30,49.4,43.8,38.1,39.0,33.7,27.8,91,69,44,30.10,30.03,28,17,35,0.00
2014-5-1,55.0,46.2,37.2,37.5,35.1,32.8,85,66,48,30.09,30.05,24,11,35,0.00
2014-5-2,74.5,54.3,35.9,46.9,37.4,30.3,85,58,27,30.08,29.82,19,10,35,0.00
2014-5-3,73.9,59.5,43.8,44.7,42.0,38.0,82,56,32,29.98,29.89,11,4,35,0.00
2014-5-4,70.8,59.2,48.5,47.8,43.8,38.7,78,58,41,29.91,29.76,19,11,35,0.00
2014-5-5,73.0,59.4,45.1,46.9,44.2,40.2,84,60,38,29.87,29.77,16,9,35,0.00
2014-5-6,85.2,66.3,47.2,60.9,51.7,42.4,85,61,36,29.78,29.45,19,8,35,0.00
2014-5-7,87.9,72.9,61.6,61.0,56.3,44.7,86,60,23,29.60,29.43,17,9,35,0.00
2014-5-8,73.0,61.2,46.0,63.2,51.2,37.5,92,71,43,29.90,29.50,29,14,35,0.02
2014-5-9,70.8,54.9,38.2,43.1,38.8,34.3,87,58,31,29.97,29.81,15,9,35,0.00
2014-5-10,80.2,67.7,54.6,52.6,41.0,31.7,70,42,18,29.81,29.69,23,12,35,0.00
2014-5-11,67.4,57.9,49.6,64.4,52.6,36.5,96,85,33,29.79,29.48,24,11,35,4.63
2014-5-12,48.9,45.1,41.6,47.2,42.1,37.7,95,89,80,30.20,29.74,31,16,38,1.56
2014-5-13,60.5,48.2,38.8,40.9,37.1,33.8,86,67,39,30.37,30.19,16,8,23,0.00
2014-5-14,64.6,52.0,39.0,43.9,37.0,31.0,81,59,30,30.38,30.19,17,6,25,0.00
2014-5-15,57.8,46.6,34.7,38.2,31.5,27.4,82,58,33,30.29,30.19,14,6,23,0.00
2014-5-16,51.2,43.8,36.0,40.9,34.9,28.7,89,71,50,30.24,30.13,9,4,23,0.02
2014-5-17,60.7,48.7,34.4,43.0,38.9,32.9,96,72,44,30.25,30.15,11,5,23,0.01
2014-5-18,72.5,58.8,42.6,52.7,44.7,37.3,82,61,44,30.19,29.83,31,18,37,0.00
2014-5-19,88.8,72.0,60.4,62.1,59.0,52.5,89,66,39,29.83,29.55,26,16,30,0.00
2014-5-20,81.4,70.3,61.7,64.2,59.8,49.9,89,71,49,29.87,29.66,21,9,24,0.00
2014-5-21,80.8,69.9,58.5,51.0,49.1,46.7,70,49,32,30.06,29.85,17,11,23,0.00
2014-5-22,73.4,64.5,55.8,61.4,55.8,45.4,89,74,50,30.18,29.99,25,8,28,0.20
2014-5-23,78.0,66.5,57.0,62.4,58.3,55.6,96,77,50,30.17,30.06,19,8,30,0.00
2014-5-24,75.6,66.6,61.3,63.6,60.9,56.0,95,83,53,30.08,29.94,18,8,30,0.04
2014-5-25,78.2,69.8,61.0,68.6,64.1,59.0,97,83,60,29.99,29.84,17,7,30,0.42
2014-5-26,84.2,72.6,60.7,64.7,61.1,55.7,96,71,39,29.94,29.84,19,8,30,0.01
2014-5-27,88.4,74.3,59.7,63.1,58.2,54.1,92,62,32,29.93,29.86,9,5,30,0.00
2014-5-31,81.9,77.0,73.6,64.4,63.4,62.8,69,63,55,29.88,29.83,17,14,20,0.00
2014-6-1,83.6,70.5,61.4,67.8,63.3,59.0,94,79,56,29.87,29.59,25,12,35,1.81
2014-6-2,80.2,45.8,59.5,63.0,11.7,-99.9,94,58,47,29.98,29.80,13,-295,35,0.00
2014-6-3,87.7,71.3,62.8,73.3,63.2,58.2,93,77,54,30.01,29.56,29,12,40,0.45
2014-6-4,74.1,66.3,60.4,64.7,61.7,59.2,96,86,69,29.88,29.69,17,6,40,0.01
2014-6-5,81.9,70.8,61.7,66.8,62.9,59.6,95,78,53,29.94,29.77,11,2,40,0.00
2014-6-6,83.9,73.6,63.4,68.1,62.6,57.8,91,71,43,29.94,29.80,15,5,40,0.00
2014-6-7,70.0,61.5,56.3,62.5,57.0,52.4,94,85,77,30.10,29.86,14,8,24,1.04
2014-6-8,68.0,61.4,53.7,60.9,56.1,51.0,92,83,72,30.12,29.91,11,6,24,0.00
2014-6-9,67.8,62.6,59.0,61.8,59.3,56.6,95,89,79,29.95,29.86,14,8,24,0.00
2014-6-10,79.9,67.2,54.9,59.1,56.4,53.5,96,71,44,29.94,29.82,9,4,24,0.00
2014-6-11,81.7,69.2,57.4,67.5,58.3,-99.9,90,72,54,29.89,29.69,23,-3,29,0.05
2014-6-12,72.4,64.1,56.5,61.7,51.7,42.9,87,66,35,30.11,29.89,14,5,24,0.00
2014-6-13,76.4,65.0,51.8,54.9,48.2,42.1,76,56,41,30.12,29.80,22,11,30,0.00
2014-6-14,89.0,75.2,62.9,70.1,63.4,53.4,81,67,48,29.80,29.40,31,18,44,0.00
2014-6-15,77.1,65.9,58.6,68.6,58.2,54.9,95,78,50,29.91,29.42,23,9,12,0.22
2014-6-16,87.0,75.9,63.0,74.8,68.8,58.1,96,80,62,29.91,29.52,25,16,32,0.02
2014-6-17,92.2,81.9,72.7,73.5,70.6,67.9,86,70,47,29.64,29.54,21,15,27,0.00
2014-6-18,92.2,81.9,69.1,72.3,69.7,62.5,85,68,43,29.77,29.57,28,13,31,0.07
2014-6-19,82.8,73.0,62.6,67.1,62.5,58.3,90,71,46,30.00,29.68,23,6,29,0.38
2014-6-20,90.6,77.2,60.0,72.8,65.2,55.3,87,68,46,30.00,29.79,27,8,31,0.01
2014-6-21,84.2,72.5,63.2,71.5,65.3,60.8,93,79,53,30.00,29.77,20,9,23,0.33
2014-6-22,80.8,73.4,66.2,68.1,65.5,62.9,92,77,57,29.88,29.74,20,6,20,0.09
2014-6-23,79.2,69.9,63.8,65.5,62.3,56.5,95,79,48,30.00,29.86,9,3,11,0.12
2014-6-24,78.2,68.4,60.9,66.9,62.9,58.5,93,83,65,30.05,29.96,11,3,12,0.02
2014-6-25,81.0,71.6,61.8,68.5,64.3,59.6,94,79,57,30.02,29.89,11,5,13,0.00
2014-6-26,78.9,71.9,66.8,69.7,66.4,63.3,95,83,68,29.92,29.74,16,8,22,0.00
2014-6-27,78.4,71.6,63.7,73.3,68.3,61.8,95,90,82,29.76,29.59,22,14,29,0.17
2014-6-28,80.5,69.1,61.5,70.0,63.9,60.0,96,85,57,29.81,29.63,19,8,19,0.44
2014-6-29,84.7,74.6,65.4,74.8,69.9,63.6,97,86,66,29.89,29.72,14,7,16,0.00
2014-6-30,80.8,74.7,63.0,74.6,67.3,57.1,96,79,48,29.81,29.52,16,7,21,0.00
2014-7-1,78.7,67.1,57.3,60.5,56.5,52.4,90,70,49,30.06,29.80,19,9,24,0.00
2014-7-2,72.8,61.5,52.0,53.7,50.8,48.3,91,70,44,30.23,30.06,13,6,18,0.00
2014-7-3,77.9,65.0,50.3,62.8,55.8,47.5,91,74,54,30.25,30.14,12,6,16,0.00
2014-7-4,81.2,70.5,59.5,65.9,60.7,55.5,87,72,55,30.20,30.03,22,12,29,0.00
2014-7-5,88.7,77.0,67.6,75.4,69.3,60.4,93,78,60,30.05,29.84,14,7,24,0.00
2014-7-6,95.4,79.0,63.4,78.1,70.6,62.0,98,78,55,29.86,29.78,10,3,24,0.00
2014-7-7,88.4,74.4,62.3,72.4,65.6,60.6,95,75,52,29.90,29.74,12,4,24,1.26
2014-7-8,79.6,70.3,58.9,63.7,60.0,56.8,94,72,47,30.05,29.90,14,6,24,0.00
2014-7-9,78.2,67.6,58.6,65.8,60.3,54.2,94,78,59,30.11,29.86,20,6,25,0.78
2014-7-10,81.4,71.6,62.9,71.3,65.8,60.6,96,83,65,30.02,29.89,16,9,24,0.00
2014-7-11,87.2,75.6,66.7,78.1,70.1,64.1,94,83,67,29.98,29.87,12,7,24,0.00
2014-7-12,84.4,75.6,67.8,74.3,68.9,65.1,92,80,65,30.01,29.92,9,5,24,0.00
2014-7-13,85.8,75.0,63.9,71.3,67.3,62.7,97,79,53,30.08,29.95,8,2,24,0.00
2014-7-14,73.4,67.2,57.1,66.3,58.5,51.4,97,76,51,30.20,29.95,22,5,49,2.88
2014-7-15,71.4,61.1,49.9,57.0,51.5,47.4,92,73,51,30.24,30.10,8,4,49,0.02
2014-7-16,71.5,63.3,53.2,59.5,54.6,50.3,92,74,56,30.13,30.04,6,1,49,0.01
2014-7-17,75.1,65.1,53.7,62.8,58.3,51.3,93,80,59,30.09,30.02,6,2,49,0.00
2014-7-18,73.6,64.1,54.7,64.4,59.2,53.3,96,85,68,30.07,29.95,14,6,49,0.00
2014-7-19,80.3,67.9,58.2,69.6,63.0,56.7,95,85,68,30.03,29.87,13,6,49,0.00
2014-7-20,88.1,75.3,63.6,77.7,69.4,61.9,95,83,67,29.89,29.72,16,9,49,0.00
2014-7-21,95.1,83.4,73.4,85.9,75.5,70.9,92,78,60,29.86,29.73,10,6,49,0.00
2014-7-22,87.8,79.8,70.8,74.9,71.2,67.8,93,76,57,30.13,29.85,9,5,49,0.00
2014-7-23,81.4,72.1,63.4,67.8,63.4,60.8,94,76,52,30.23,30.11,10,3,49,0.00
2014-7-24,83.4,72.7,60.7,71.8,65.7,58.7,95,79,64,30.13,29.81,19,10,49,0.00
2014-7-25,91.8,81.7,72.1,79.5,72.5,68.1,92,75,56,29.87,29.68,12,6,49,0.00
2014-7-26,91.3,79.6,72.5,80.0,74.9,70.3,97,86,62,29.94,29.72,9,3,49,0.00
2014-7-27,82.4,72.7,62.4,70.1,62.3,57.2,94,72,44,30.19,29.94,12,5,49,0.00
2014-7-28,75.7,66.2,55.9,60.7,58.0,54.0,94,76,56,30.31,30.19,7,3,49,0.00
2014-7-29,77.0,67.5,59.8,64.0,59.5,56.9,94,77,56,30.23,30.11,6,1,49,0.04
2014-7-30,59.3,59.0,58.5,57.3,57.0,56.5,93,93,93,30.14,30.13,0,0,49,0.00
2014-8-2,82.7,75.7,65.5,69.5,66.2,62.2,92,73,54,30.14,30.01,10,5,14,0.00
2014-8-3,87.4,73.0,59.2,70.7,64.6,56.9,94,76,54,30.08,29.97,7,3,9,0.00
2014-8-4,85.7,74.0,63.8,72.1,68.0,62.6,97,83,59,30.06,29.95,7,2,10,0.00
2014-8-5,84.6,75.3,66.7,73.3,69.2,65.5,97,83,60,30.03,29.88,11,6,14,0.01
2014-8-6,80.9,72.8,67.7,72.4,68.8,66.0,95,88,74,29.95,29.83,9,4,13,0.54
2014-8-7,77.3,70.7,65.8,69.2,67.1,63.7,97,89,73,29.97,29.89,7,2,10,0.00
2014-8-8,80.0,70.9,63.3,71.5,66.9,62.1,97,88,71,30.04,29.91,16,4,22,0.05
2014-8-9,80.8,69.0,62.2,72.1,65.8,61.0,97,90,74,30.06,29.90,16,6,18,0.67
2014-8-10,82.0,70.1,64.6,69.5,65.4,63.1,97,86,62,30.07,29.96,8,2,10,1.08
2014-8-13,79.4,69.5,56.4,67.9,61.5,53.9,93,77,59,30.15,30.03,7,4,11,0.00
2014-8-14,83.4,71.9,59.8,71.4,64.0,56.6,90,77,62,30.06,29.88,15,8,23,0.00
2014-8-15,76.6,71.6,68.3,70.3,67.8,65.1,95,88,77,29.91,29.79,12,4,17,0.15
2014-8-16,84.7,72.9,66.5,75.5,69.6,65.4,98,90,71,29.91,29.81,5,1,6,0.14
2014-8-17,85.7,74.1,62.9,73.9,69.0,59.3,98,85,64,30.07,29.82,37,4,57,1.68
2014-8-18,83.6,72.9,60.8,73.7,66.0,58.3,94,80,63,29.89,29.77,16,2,57,0.00
2014-8-19,85.6,76.1,66.6,74.3,69.6,65.0,96,81,58,29.83,29.71,9,3,12,0.00
2014-8-20,87.4,77.6,69.0,76.7,70.9,65.7,90,80,67,29.76,29.67,15,8,20,0.00
2014-8-21,84.5,77.2,71.1,77.5,71.7,63.6,95,83,72,29.88,29.70,22,5,32,0.46
2014-8-22,86.0,76.6,67.1,78.0,72.1,65.6,97,87,72,29.93,29.81,24,3,41,0.72
2014-8-23,87.6,75.4,67.2,76.1,69.7,63.5,96,84,64,29.90,29.68,13,7,41,0.02
2014-8-24,83.2,75.4,66.6,68.5,63.9,58.2,92,69,45,29.85,29.71,13,4,18,0.00
2014-8-25,71.9,66.2,60.1,62.4,58.4,53.6,92,76,64,30.09,29.95,13,7,0,0.35
2014-8-26,79.1,67.8,60.0,70.6,64.5,58.3,97,90,73,30.18,30.05,9,3,10,0.24
2014-8-27,75.6,70.7,66.9,72.5,69.0,65.7,98,94,86,30.13,29.98,10,4,14,0.13
2014-8-28,79.9,72.8,66.3,72.8,69.2,65.6,98,89,76,29.98,29.77,14,5,16,1.22
2014-8-29,75.2,68.5,65.0,69.9,65.8,63.2,97,91,77,29.88,29.75,7,2,9,0.29
2014-8-30,81.0,70.2,59.1,70.0,64.6,58.0,97,83,64,29.97,29.80,9,4,13,0.01
2014-8-31,84.2,72.4,62.8,73.7,65.2,61.0,95,79,63,29.81,29.57,13,6,18,0.01
2014-9-1,76.2,66.4,57.8,66.2,60.4,54.7,95,82,57,29.99,29.69,12,4,17,0.00
2014-9-2,79.1,65.9,52.6,65.6,58.7,51.1,96,79,54,30.03,29.90,6,3,10,0.00
2014-9-3,86.9,74.5,64.7,76.7,69.5,60.4,97,85,69,29.90,29.63,16,9,20,0.00
2014-9-4,84.3,75.1,67.1,71.9,67.4,55.8,88,77,65,29.98,29.64,12,8,18,0.00
2014-9-5,67.1,59.0,53.4,56.8,54.9,51.5,95,86,65,30.31,29.98,13,5,16,0.21
2014-9-6,71.8,59.5,47.0,56.7,52.0,45.9,97,78,51,30.36,30.24,4,1,6,0.00
2014-9-7,74.2,61.7,49.0,57.4,52.7,47.1,93,74,48,30.26,30.00,11,5,16,0.00
2014-9-8,86.1,70.0,57.2,71.8,62.6,53.0,93,78,59,30.00,29.75,11,7,20,0.00
2014-9-9,75.1,68.5,64.4,69.2,66.1,62.9,96,92,80,29.81,29.56,11,4,13,0.56
2014-9-10,66.1,57.7,49.4,65.1,54.7,47.2,97,90,80,30.16,29.66,16,9,26,0.02
2014-9-11,50.8,49.1,46.5,48.1,47.1,45.0,96,93,87,30.42,30.16,8,5,13,0.15
2014-9-12,53.3,46.0,41.2,45.1,41.9,37.9,96,86,62,30.55,30.40,8,4,15,0.56
2014-9-13,58.3,47.5,34.9,47.6,40.9,33.6,96,79,58,30.49,30.27,14,4,20,0.00
2014-9-14,70.0,57.2,42.6,55.6,49.8,40.7,94,78,57,30.27,30.05,11,4,18,0.00
2014-9-15,64.7,57.8,49.2,55.7,50.0,44.9,95,77,50,30.29,30.00,12,5,18,0.01
2014-9-16,68.6,55.4,42.9,55.5,48.5,41.2,94,79,55,30.30,30.01,11,4,15,0.00
2014-9-17,79.9,64.6,49.9,66.7,58.5,48.2,95,81,61,30.00,29.88,9,2,10,0.00
2014-9-18,76.8,65.6,56.3,67.1,61.5,55.3,98,88,63,29.99,29.88,15,6,19,0.00
2014-9-19,86.9,73.0,61.8,68.2,64.5,60.6,97,77,49,29.93,29.76,16,9,24,0.00
2014-9-20,85.0,73.8,61.3,65.5,60.8,53.7,91,66,37,30.09,29.79,9,4,15,0.00
2014-9-21,72.8,61.5,49.1,53.4,48.3,44.8,87,65,39,30.30,30.09,10,4,16,0.00
2014-9-22,74.0,60.7,46.7,52.8,49.4,43.5,91,69,44,30.34,30.16,8,4,13,0.00
2014-9-23,66.0,60.5,55.5,58.5,55.5,51.6,95,84,70,30.18,30.02,16,9,27,0.36
2014-9-24,80.0,66.1,56.5,65.3,59.7,54.4,94,81,58,30.15,30.04,15,5,21,0.87
2014-9-25,84.4,68.8,54.5,65.3,60.3,53.6,97,77,43,30.17,30.06,10,3,14,0.00
2014-9-26,83.0,69.4,56.6,63.0,57.2,53.6,93,69,37,30.08,30.00,16,7,22,0.00
2014-9-27,81.1,68.5,58.3,62.4,57.7,55.3,90,71,43,30.05,29.97,17,11,21,0.00
2014-9-30,69.3,64.5,60.4,63.5,61.4,59.3,97,90,78,29.80,29.70,17,8,20,0.15
2014-10-1,78.2,67.4,59.5,64.7,60.0,55.7,97,80,48,29.82,29.68,12,4,12,0.92
2014-10-2,65.7,56.9,48.3,57.6,50.4,42.7,95,80,48,29.95,29.73,20,7,21,0.24
2014-10-3,55.0,46.8,36.6,43.7,32.5,25.3,86,60,33,30.28,29.96,25,14,33,0.11
2014-10-4,60.4,46.0,32.9,39.3,33.0,29.7,88,64,33,30.20,29.88,12,6,18,0.00
2014-10-5,70.9,56.6,44.7,48.5,43.8,38.6,87,65,39,29.88,29.77,19,9,26,0.00
2014-10-6,74.8,61.0,47.7,49.3,45.1,41.7,85,59,32,29.82,29.66,17,7,23,0.00
2014-10-7,74.8,62.8,52.4,48.3,44.2,39.2,83,54,28,30.05,29.72,13,4,18,0.00
2014-10-8,71.0,57.6,47.0,46.4,41.2,35.3,82,57,33,30.15,30.00,11,4,15,0.00
2014-10-9,64.3,57.9,52.6,52.8,48.0,43.0,77,70,64,30.18,29.98,14,8,20,0.00
2014-10-10,53.5,48.1,42.2,42.6,35.3,32.9,75,62,48,30.31,30.17,10,4,13,0.00
2014-10-11,61.3,45.9,33.3,39.5,35.3,30.3,90,68,43,30.31,30.02,12,4,14,0.00
2014-10-12,63.1,50.4,41.0,50.6,43.8,36.1,94,80,51,30.02,29.70,16,6,25,0.10
2014-10-13,62.5,54.0,49.8,50.5,43.8,37.6,95,71,44,29.94,29.81,18,12,30,0.06
2014-10-14,65.3,53.1,41.9,41.5,37.3,34.8,81,57,33,30.10,29.93,14,8,25,0.00
2014-10-15,72.9,53.3,36.0,44.2,38.4,31.6,87,61,31,30.14,29.88,11,5,25,0.00
2014-10-16,76.5,58.8,43.9,48.8,41.4,34.3,91,57,27,29.93,29.75,17,7,25,0.00
2014-10-17,64.4,52.9,43.8,44.3,41.7,36.9,83,67,45,30.22,29.93,18,8,25,0.00
2014-10-18,55.7,42.5,33.9,42.0,37.0,32.1,95,82,55,30.36,30.21,8,3,8,0.00
2014-10-19,71.9,53.6,40.0,51.0,44.0,35.6,90,72,46,30.21,30.00,15,7,19,0.00
2014-10-20,75.8,58.1,45.5,47.2,43.8,40.2,90,63,33,30.16,30.04,7,3,9,0.00
2014-10-21,75.8,58.5,41.6,49.7,43.7,37.4,87,61,29,30.13,29.99,19,8,22,0.00
2014-10-22,77.2,61.0,53.0,59.3,54.9,46.7,95,82,48,30.04,29.95,21,11,28,0.48
2014-10-23,67.9,57.8,52.4,58.6,55.0,51.6,97,91,70,30.12,30.01,7,3,10,0.01
2014-10-24,79.0,62.9,55.1,57.5,53.6,48.7,96,75,36,30.04,29.92,9,5,10,0.00
2014-10-25,74.4,59.3,45.6,49.9,46.7,42.1,91,66,37,30.13,29.98,8,4,10,0.00
2014-10-26,77.9,63.3,51.8,57.9,52.6,45.8,92,70,47,29.98,29.56,15,7,17,0.00
2014-10-27,69.4,56.1,44.7,51.4,44.4,38.6,89,67,37,30.04,29.55,23,9,29,0.00
2014-10-28,59.5,46.1,34.9,38.5,31.4,27.2,84,60,31,30.26,30.04,14,6,19,0.00
2014-10-29,60.4,43.9,28.2,37.0,31.7,24.6,88,65,36,30.32,30.05,14,6,17,0.00
2014-10-30,62.1,49.3,38.0,41.2,37.5,33.4,86,66,42,30.46,30.03,19,9,27,0.00
2014-10-31,43.3,33.9,24.5,33.1,21.3,16.0,81,62,33,30.66,30.46,17,6,22,0.00
2014-11-1,53.0,38.3,26.3,24.1,20.1,17.2,77,51,25,30.52,30.12,26,15,30,0.00
2014-11-2,64.4,51.3,41.5,49.4,36.5,23.8,81,58,46,30.12,29.84,23,16,28,0.00
2014-11-3,65.2,52.9,37.4,54.0,46.5,34.1,89,79,60,30.14,29.78,18,13,22,0.44
2014-11-4,62.1,45.0,32.8,37.9,31.8,27.3,89,65,27,30.27,30.13,14,7,18,0.02
2014-11-5,68.0,51.1,37.7,39.5,34.1,29.6,76,55,32,30.29,30.08,20,10,29,0.00
2014-11-6,57.1,43.2,34.0,31.8,28.7,26.7,81,58,33,30.49,30.25,13,8,17,0.00
2014-11-7,67.5,51.3,37.9,42.5,35.4,27.5,72,56,35,30.24,29.82,23,13,33,0.00
2014-11-8,52.9,43.1,34.5,40.6,30.5,27.6,81,62,39,30.33,29.97,15,9,22,0.00
2014-11-9,68.7,49.5,36.1,40.7,36.1,29.3,87,63,29,29.97,29.53,12,6,17,0.00
2014-11-10,51.3,36.0,20.9,42.6,31.0,17.1,92,82,64,30.18,29.35,30,14,36,0.00
2014-11-11,23.3,18.1,13.7,17.4,10.8,6.0,83,73,63,30.67,30.16,22,15,36,0.00
2014-11-12,22.1,15.0,9.8,8.6,5.7,2.1,78,67,50,30.75,30.66,20,14,36,0.00
2014-11-13,25.2,16.1,9.8,9.8,6.2,2.7,84,66,41,30.79,30.64,17,6,36,0.00
2014-11-14,26.9,18.2,7.2,13.8,9.0,1.2,81,67,55,30.64,30.35,14,7,20,0.00
2014-11-15,25.7,20.7,10.8,23.7,16.2,5.4,92,83,68,30.42,30.23,18,11,23,0.00
2014-11-16,26.2,14.0,0.7,17.5,6.5,-4.3,81,72,60,30.43,30.23,23,11,36,0.00
2014-11-17,19.0,12.7,3.9,9.4,4.5,-2.3,78,70,58,30.47,30.37,20,11,25,0.00
2014-11-18,39.7,21.9,2.3,25.7,12.6,-2.7,81,68,50,30.46,30.04,14,7,20,0.00
2014-11-19,38.4,29.0,19.0,28.4,20.7,13.9,85,71,56,30.30,30.05,21,7,28,0.00
2014-11-20,34.5,23.2,13.8,24.3,17.4,10.6,89,79,65,30.35,30.28,9,4,20,0.00
2014-11-22,55.7,52.0,46.6,51.5,47.3,40.7,93,84,61,29.67,29.58,16,11,19,0.00
2014-11-23,54.1,43.5,34.0,50.9,38.2,24.5,95,82,66,29.70,29.48,25,11,30,0.12
2014-11-24,39.1,30.5,22.3,24.5,17.9,11.3,76,61,33,30.26,29.67,25,14,30,0.01
2014-11-25,45.8,32.6,16.9,31.9,22.1,12.1,89,67,43,30.28,29.96,16,9,21,0.03
2014-11-26,38.8,29.6,19.4,31.8,22.8,14.4,82,75,67,30.58,30.00,28,14,41,0.00
2014-11-27,37.3,25.5,16.0,20.3,16.0,11.2,84,68,50,30.65,30.16,18,8,23,0.00
2014-11-28,71.0,42.4,21.6,35.4,27.3,17.2,86,60,23,30.16,29.69,15,8,18,0.00
2014-11-29,79.7,50.4,25.3,34.3,27.0,17.9,82,46,10,29.75,29.52,14,6,19,0.00
2014-11-30,25.6,17.0,11.0,21.2,5.2,0.3,83,60,46,30.74,29.75,15,10,24,0.00
2014-12-1,24.1,16.7,13.1,3.8,1.6,-0.9,61,51,35,30.88,30.50,11,7,17,0.00
2014-12-2,48.4,28.9,14.7,18.3,10.1,3.1,63,47,27,30.50,30.08,19,9,23,0.00
2014-12-3,36.9,30.1,24.5,17.4,14.4,11.2,71,53,35,30.49,30.28,11,6,17,0.00
2014-12-4,44.8,32.0,19.4,29.9,21.3,12.2,78,65,51,30.33,30.10,13,8,17,0.00
2014-12-5,54.7,38.9,28.6,39.7,31.1,22.8,91,75,51,30.48,30.10,9,5,17,0.00
2014-12-6,38.8,29.2,21.0,29.5,23.6,17.5,94,80,61,30.68,30.48,15,6,17,0.00
2014-12-7,40.6,34.8,28.4,39.8,33.8,27.4,97,96,94,30.57,30.26,16,9,19,0.00
2014-12-8,53.7,37.4,25.8,35.1,28.4,22.2,97,72,40,30.49,30.30,12,8,17,0.00
2014-12-9,32.4,24.3,14.9,24.6,20.3,12.7,93,85,72,30.57,30.40,11,4,17,0.00
2014-12-10,35.7,29.4,20.8,31.5,26.8,18.8,95,90,84,30.41,30.29,10,6,17,0.00
2014-12-11,38.3,34.2,31.7,36.5,32.3,29.6,96,93,87,30.33,30.25,12,6,17,0.00
2014-12-12,53.4,44.8,37.9,47.7,42.6,36.4,97,92,80,30.31,30.19,16,8,20,0.00
2014-12-13,52.8,49.1,47.0,52.0,48.1,45.4,97,96,94,30.20,29.88,18,13,22,0.00
2014-12-14,57.8,53.7,40.9,56.0,52.4,39.6,97,95,92,29.88,29.67,21,14,26,0.01
2014-12-15,40.7,31.7,26.3,39.6,29.2,21.7,96,90,81,30.24,29.67,29,19,40,0.05
2014-12-16,26.4,23.3,20.2,22.8,19.7,17.4,89,86,83,30.51,30.24,26,12,36,0.00
2014-12-17,25.5,22.5,19.8,21.0,19.1,17.1,91,86,79,30.49,30.34,8,4,17,0.00
2014-12-18,29.3,26.4,23.4,27.0,24.1,20.6,94,91,84,30.37,30.30,7,3,17,0.00
2014-12-19,32.9,31.0,28.9,31.4,29.4,27.1,97,94,91,30.35,30.18,11,6,17,0.01
2014-12-20,32.9,30.4,28.4,32.3,29.7,27.7,98,97,97,30.22,30.07,9,2,17,0.03
2014-12-21,41.6,36.8,30.5,40.5,36.0,29.9,98,97,95,30.07,29.65,18,10,23,0.10
2014-12-22,45.4,40.5,32.9,41.3,36.6,29.7,98,86,69,29.64,29.51,23,12,27,0.00
2014-12-23,35.3,32.4,30.4,33.2,30.3,27.5,97,92,87,30.11,29.63,24,15,34,0.11
2014-12-24,38.8,30.8,26.3,28.9,25.8,23.7,92,82,61,30.10,29.71,19,10,24,0.01
2014-12-25,46.2,34.9,27.4,32.8,28.0,23.6,93,76,57,29.87,29.61,18,9,23,0.03
2014-12-26,32.3,27.5,22.5,30.2,25.3,20.8,94,91,85,30.25,29.87,13,9,21,0.00
2014-12-27,26.2,18.6,11.5,20.7,14.8,8.9,93,85,73,30.44,30.24,14,8,17,0.00
2014-12-28,29.4,20.1,8.7,23.3,15.4,4.9,88,82,68,30.36,30.24,10,4,17,0.00
2014-12-29,21.7,15.7,2.8,18.6,12.7,-1.2,92,88,80,30.88,30.34,18,10,29,0.00
2014-12-30,6.2,1.0,-4.9,-0.9,-5.3,-9.7,84,74,65,31.09,30.88,11,7,29,0.00
2014-12-31,16.6,4.1,-5.6,6.7,-2.0,-9.7,82,76,62,30.99,30.47,21,11,29,0.00
2015-1-1,33.6,19.4,8.1,24.3,13.6,2.2,88,78,67,30.47,30.24,10,7,29,0.00
2015-1-2,33.5,21.2,13.0,24.4,16.7,10.3,91,83,67,30.34,30.09,12,3,29,0.00